Location: Treviso
(45.6669°N, 12.2430°E)
Time: 10:02:19
(UTC+01:00)

ISS - Pass Details

Date: 04 December 2021
Orbit: 417 x 422 km, 51.6° (Epoch: 06 December)

Event Time Altitude Azimuth Distance (km) Brightness Sun altitude
Rises 17:58:23 0° 298° (WNW) 2,379 0.8 -15.3°
Reaches altitude 10° 18:00:30 10° 301° (WNW) 1,512 -0.3 -15.6°
Maximum altitude 18:03:54 71° 26° (NNE) 450 -3.8 -16.2°
Enters shadow 18:04:59 39° 99° (E) 648 -3.3 -16.4°
